User: anonymous   Login
Location: Runa
(38.1429°N, 80.8510°W)
Time: 12:26:20
(UTC+00:00)
Language:

ISS - Orbit

View from above orbital plane
View from above orbital plane
View from above satellite
View from above satellite

Ground track
Ground track

The orbit is defined by the following mean orbital elements,

1 25544U          26132.19887559 +.00000000 +00000-0 +93039-4 0 00007
2 25544  51.6312 118.2489 0007476  49.7974 310.3668 15.49191856    03
Epoch (UTC): 12 May 2026 04:46:22
Eccentricity: 0.0007476
inclination: 51.6312°
perigee height: 414 km
apogee height: 424 km
right ascension of ascending node: 118.2489°
argument of perigee: 49.7974°
revolutions per day: 15.49191856
mean anomaly at epoch: 310.3668°

The dashed part of the orbit path shows where the satellite is in the earth's shadow,  

DLR